Hourly Weather Ruchaiky

Today, 13 April, Tuesday

Time Temperature Precipitation Wind Pressure Humidity
00:00 +9°C° 0 mm 2 mps 750 mmHg 82%
01:00 +9°C° 0 mm 2 mps 750 mmHg 83%
02:00 +9°C° 0 mm 2 mps 750 mmHg 84%
03:00 +8°C° 0 mm 2 mps 750 mmHg 85%
04:00 +8°C° 0 mm 2 mps 750 mmHg 86%
05:00 +8°C° 0 mm 2 mps 750 mmHg 86%
06:00 +9°C° 0 mm 2 mps 750 mmHg 83%
07:00 +9°C° 0 mm 2 mps 750 mmHg 80%
08:00 +10°C° 0 mm 3 mps 750 mmHg 77%
09:00 +10°C° 0 mm 3 mps 750 mmHg 75%
10:00 +11°C° 0 mm 4 mps 750 mmHg 73%
11:00 +12°C° 0 mm 4 mps 750 mmHg 71%
12:00 +12°C° 0 mm 4 mps 750 mmHg 70%
13:00 +12°C° 0 mm 4 mps 750 mmHg 68%
14:00 +12°C° 0 mm 4 mps 750 mmHg 67%
15:00 +12°C° 0 mm 3 mps 749 mmHg 68%
16:00 +12°C° 0 mm 3 mps 749 mmHg 69%
17:00 +12°C° 0 mm 3 mps 749 mmHg 70%
18:00 +12°C° 0 mm 2 mps 749 mmHg 73%
19:00 +12°C° 0 mm 1 mps 749 mmHg 76%
20:00 +11°C° 0 mm 1 mps 749 mmHg 79%
21:00 +11°C° 0 mm 1 mps 749 mmHg 80%
22:00 +10°C° 0 mm 1 mps 749 mmHg 80%
23:00 +9°C° 0 mm 2 mps 749 mmHg 81%

Tomorrow, 14 April, Wednesday

Time Temperature Precipitation Wind Pressure Humidity
00:00 +9°C° 0 mm 2 mps 748 mmHg 84%
01:00 +8°C° 0 mm 2 mps 748 mmHg 87%
02:00 +7°C° 0 mm 2 mps 748 mmHg 89%
03:00 +7°C° 0 mm 2 mps 748 mmHg 90%
04:00 +6°C° 0 mm 2 mps 748 mmHg 91%
05:00 +6°C° 0 mm 2 mps 748 mmHg 91%
06:00 +7°C° 0 mm 2 mps 748 mmHg 84%
07:00 +8°C° 0 mm 2 mps 748 mmHg 77%
08:00 +10°C° 0 mm 3 mps 748 mmHg 69%
09:00 +11°C° 0 mm 3 mps 747 mmHg 65%
10:00 +12°C° 0 mm 3 mps 747 mmHg 60%
11:00 +14°C° 0 mm 4 mps 747 mmHg 56%
12:00 +14°C° 0 mm 3 mps 747 mmHg 55%
13:00 +14°C° 0 mm 3 mps 746 mmHg 55%
14:00 +14°C° 0 mm 3 mps 746 mmHg 54%
15:00 +14°C° 0.1 mm 3 mps 746 mmHg 56%
16:00 +14°C° 0.1 mm 3 mps 745 mmHg 57%
17:00 +15°C° 0.1 mm 2 mps 745 mmHg 59%
18:00 +14°C° 0 mm 2 mps 745 mmHg 61%
19:00 +13°C° 0 mm 2 mps 745 mmHg 63%
20:00 +13°C° 0 mm 2 mps 745 mmHg 65%
21:00 +11°C° 0 mm 3 mps 745 mmHg 67%
22:00 +10°C° 0 mm 4 mps 745 mmHg 69%
23:00 +9°C° 0 mm 5 mps 745 mmHg 72%

Day after tomorrow, 15 April, Thursday

Time Temperature Precipitation Wind Pressure Humidity
00:00 +8°C° 0 mm 4 mps 744 mmHg 75%
01:00 +9°C° 0 mm 3 mps 744 mmHg 79%
02:00 +8°C° 0 mm 2 mps 744 mmHg 83%
03:00 +8°C° 0 mm 2 mps 744 mmHg 84%
04:00 +8°C° 0 mm 2 mps 744 mmHg 86%
05:00 +8°C° 0 mm 2 mps 744 mmHg 88%
06:00 +8°C° 0.1 mm 3 mps 744 mmHg 88%
07:00 +9°C° 0.1 mm 3 mps 744 mmHg 89%
08:00 +9°C° 0.1 mm 3 mps 744 mmHg 89%
09:00 +9°C° 0.7 mm 3 mps 743 mmHg 90%
10:00 +8°C° 0.7 mm 4 mps 743 mmHg 90%
11:00 +8°C° 0.7 mm 4 mps 743 mmHg 90%
12:00 +9°C° 0.7 mm 3 mps 743 mmHg 90%
13:00 +9°C° 0.7 mm 3 mps 743 mmHg 90%
14:00 +9°C° 0.7 mm 3 mps 743 mmHg 90%
15:00 +9°C° 0.8 mm 3 mps 743 mmHg 89%
16:00 +8°C° 0.8 mm 3 mps 743 mmHg 89%
17:00 +8°C° 0.8 mm 3 mps 743 mmHg 89%
18:00 +7°C° 0.1 mm 4 mps 743 mmHg 88%
19:00 +7°C° 0.1 mm 4 mps 743 mmHg 87%
20:00 +6°C° 0.1 mm 5 mps 743 mmHg 87%
21:00 +6°C° 0 mm 5 mps 743 mmHg 87%
22:00 +5°C° 0 mm 4 mps 743 mmHg 87%
23:00 +4°C° 0 mm 4 mps 743 mmHg 88%

16 April, Friday

Time Temperature Precipitation Wind Pressure Humidity
00:00 +4°C° 0 mm 4 mps 743 mmHg 87%
01:00 +4°C° 0 mm 4 mps 743 mmHg 87%
02:00 +4°C° 0 mm 4 mps 743 mmHg 87%
03:00 +4°C° 0.1 mm 4 mps 743 mmHg 88%
04:00 +3°C° 0.1 mm 5 mps 743 mmHg 89%
05:00 +3°C° 0.1 mm 5 mps 743 mmHg 89%
06:00 +3°C° 0 mm 5 mps 743 mmHg 87%
07:00 +3°C° 0 mm 5 mps 743 mmHg 85%
08:00 +4°C° 0 mm 6 mps 744 mmHg 83%
09:00 +4°C° 0 mm 6 mps 744 mmHg 82%
10:00 +4°C° 0 mm 6 mps 744 mmHg 81%
11:00 +4°C° 0 mm 6 mps 744 mmHg 79%
12:00 +4°C° 0.1 mm 6 mps 745 mmHg 81%
13:00 +4°C° 0.1 mm 6 mps 745 mmHg 83%
14:00 +5°C° 0.1 mm 5 mps 745 mmHg 85%
15:00 +5°C° 0 mm 5 mps 745 mmHg 80%
16:00 +6°C° 0 mm 4 mps 746 mmHg 76%
17:00 +6°C° 0 mm 4 mps 746 mmHg 72%
18:00 +7°C° 0.1 mm 3 mps 746 mmHg 75%
19:00 +5°C° 0.1 mm 3 mps 746 mmHg 79%
20:00 +6°C° 0.1 mm 2 mps 746 mmHg 82%
21:00 +5°C° 0 mm 2 mps 746 mmHg 84%
22:00 +5°C° 0 mm 2 mps 747 mmHg 85%
23:00 +4°C° 0 mm 2 mps 747 mmHg 87%

17 April, Saturday

Time Temperature Precipitation Wind Pressure Humidity
00:00 +4°C° 0 mm 2 mps 747 mmHg 88%
01:00 +4°C° 0 mm 2 mps 747 mmHg 89%
02:00 +4°C° 0 mm 2 mps 747 mmHg 90%
03:00 +4°C° 0 mm 2 mps 747 mmHg 90%
04:00 +4°C° 0 mm 2 mps 748 mmHg 89%
05:00 +3°C° 0 mm 3 mps 748 mmHg 89%
06:00 +4°C° 0.1 mm 3 mps 748 mmHg 87%
07:00 +4°C° 0.1 mm 3 mps 748 mmHg 86%
08:00 +5°C° 0.1 mm 3 mps 748 mmHg 84%
09:00 +5°C° 0 mm 3 mps 749 mmHg 82%
10:00 +7°C° 0 mm 3 mps 749 mmHg 80%
11:00 +7°C° 0 mm 2 mps 749 mmHg 78%
12:00 +8°C° 0 mm 2 mps 749 mmHg 75%
13:00 +9°C° 0 mm 2 mps 749 mmHg 72%
14:00 +9°C° 0 mm 2 mps 750 mmHg 70%
15:00 +9°C° 0 mm 2 mps 750 mmHg 70%
16:00 +9°C° 0 mm 2 mps 750 mmHg 70%
17:00 +9°C° 0 mm 2 mps 750 mmHg 70%
18:00 +9°C° 0 mm 2 mps 750 mmHg 74%
19:00 +8°C° 0 mm 2 mps 750 mmHg 78%
20:00 +7°C° 0 mm 2 mps 750 mmHg 82%
21:00 +7°C° 0 mm 2 mps 750 mmHg 82%
22:00 +7°C° 0 mm 2 mps 750 mmHg 82%
23:00 +7°C° 0 mm 2 mps 751 mmHg 82%

18 April, Sunday

Time Temperature Precipitation Wind Pressure Humidity
00:00 +7°C° 0 mm 2 mps 751 mmHg 83%
01:00 +7°C° 0 mm 2 mps 751 mmHg 83%
02:00 +7°C° 0 mm 2 mps 751 mmHg 83%
03:00 +7°C° 0 mm 2 mps 751 mmHg 84%
04:00 +6°C° 0 mm 2 mps 751 mmHg 84%
05:00 +5°C° 0 mm 3 mps 751 mmHg 85%
06:00 +7°C° 0 mm 3 mps 752 mmHg 81%
07:00 +8°C° 0 mm 3 mps 752 mmHg 77%
08:00 +8°C° 0 mm 4 mps 752 mmHg 73%
09:00 +10°C° 0.1 mm 4 mps 752 mmHg 65%
10:00 +12°C° 0.1 mm 4 mps 753 mmHg 58%
11:00 +13°C° 0.1 mm 4 mps 753 mmHg 51%
12:00 +13°C° 0 mm 4 mps 753 mmHg 50%
13:00 +13°C° 0 mm 4 mps 753 mmHg 49%
14:00 +14°C° 0 mm 4 mps 753 mmHg 48%
15:00 +13°C° 0 mm 4 mps 753 mmHg 50%
16:00 +13°C° 0 mm 3 mps 753 mmHg 51%
17:00 +13°C° 0 mm 3 mps 753 mmHg 52%
18:00 +12°C° 0 mm 3 mps 753 mmHg 58%
19:00 +10°C° 0 mm 3 mps 753 mmHg 64%
20:00 +9°C° 0 mm 3 mps 753 mmHg 69%
21:00 +7°C° 0 mm 4 mps 753 mmHg 75%
22:00 +7°C° 0 mm 4 mps 753 mmHg 80%
23:00 +6°C° 0 mm 4 mps 753 mmHg 85%
Show more